Wind_Speed
23 23 22 21 20 20 20 20 19 18 18 18 18 17 17 16 15 14 13 14 14 14 15 15 16 16 17 17 17 17 17 17 17 17 18 18 18 18 19 20 20 21 21 21
23 23 23 23 22 22 22 22 21 20 20 20 19 19 19 18 17 17 16 16 17 17 17 17 18 18 19 18 19 18 19 19 19 19 20 20 21 21 22 22 22 22 22 23
23 23 23 24 24 24 23 23 22 22 21 22 22 21 21 20 19 19 19 19 18 18 19 19 20 20 21 20 21 21 21 22 22 21 22 23 23 23 24 24 23 23 23 24
23 23 24 24 24 24 24 24 23 23 23 23 23 23 23 22 22 22 21 21 21 20 20 21 22 22 22 22 23 23 23 24 24 24 25 25 25 25 24 24 24 24 25 25
24 24 24 25 24 24 24 25 24 25 25 24 24 24 25 24 24 24 23 23 23 22 22 23 23 24 24 24 24 25 25 25 25 25 26 26 26 26 26 26 26 26 26 26
26 25 23 24 23 23 24 26 25 25 26 25 25 26 26 26 26 26 25 25 25 25 25 26 26 26 26 26 26 26 27 27 27 27 27 28 27 27 27 28 28 27 27 27
26 26 25 26 25 24 24 26 26 26 26 26 26 27 27 27 28 27 27 27 27 27 27 28 28 28 27 27 28 28 29 29 30 29 29 29 29 29 29 29 29 29 28 28
28 27 27 28 28 27 27 27 27 27 27 27 28 27 27 27 27 28 27 27 27 28 29 29 29 29 29 29 29 30 30 31 31 31 31 31 31 31 31 30 29 29 29 29
30 30 30 31 30 29 29 28 28 27 28 28 28 28 28 28 27 28 28 28 28 29 30 30 30 30 31 31 31 31 31 32 32 33 32 32 32 32 31 31 30 29 29 30
30 30 30 30 30 30 30 29 29 28 29 29 29 28 28 28 28 29 29 29 30 30 31 31 31 31 32 32 32 32 32 33 33 33 33 32 32 32 31 31 31 31 31 31
30 29 30 29 29 30 30 30 31 30 30 29 29 29 29 28 29 29 30 30 31 31 32 32 32 32 33 33 32 31 31 32 32 33 32 32 32 32 31 31 32 32 32 32
30 29 30 30 30 31 31 31 31 31 31 30 30 30 30 29 30 30 31 32 32 32 33 33 33 33 33 33 32 32 32 32 32 32 32 32 32 32 32 33 32 32 32 32
31 31 31 31 31 31 32 32 32 32 31 31 31 31 31 30 30 31 31 32 32 33 34 35 35 34 34 34 33 33 34 33 33 33 33 33 33 33 33 33 33 33 33 33
32 32 32 31 32 32 32 32 32 32 32 32 32 32 32 32 31 31 32 33 34 34 34 35 34 34 35 34 34 34 34 34 33 32 32 33 33 33 33 33 33 33 33 33
32 32 32 31 31 31 31 32 32 32 32 32 33 33 32 32 32 32 33 33 34 34 33 34 34 34 33 34 34 34 33 33 33 32 32 33 33 33 34 34 34 34 34 34
31 31 31 30 30 30 31 31 31 30 31 31 31 31 32 32 33 33 33 33 33 32 32 32 32 32 31 32 33 33 33 33 33 33 33 34 34 33 33 33 33 33 33 33
29 29 29 30 30 30 30 30 30 30 30 31 31 32 32 32 32 33 33 33 33 33 33 32 32 32 32 32 33 33 33 34 33 34 34 34 34 33 33 32 32 32 31 31
27 27 28 29 29 29 29 30 30 30 29 30 31 31 32 33 32 31 31 31 31 32 32 33 33 33 33 34 34 34 34 34 34 34 34 33 33 32 32 32 31 31 31 30
26 26 26 26 27 28 29 30 30 30 30 30 30 31 31 32 33 32 32 32 32 32 31 32 33 34 35 35 35 35 34 34 34 34 33 32 32 32 31 31 31 30 30 29
24 24 25 25 26 27 28 29 29 29 29 29 29 30 30 30 30 30 31 31 32 32 32 32 33 33 33 33 33 33 33 33 32 32 31 30 31 31 30 30 29 28 27 26
23 23 24 25 25 26 27 28 29 29 29 28 28 28 28 29 30 30 30 31 31 31 31 32 32 32 32 31 31 31 30 31 31 30 29 29 29 28 28 27 27 26 26 26
21 21 22 23 24 24 25 27 27 27 28 27 27 27 27 28 30 31 30 31 30 31 31 31 31 31 30 30 30 30 29 29 28 28 27 27 26 26 26 26 26 26 26 26
20 20 20 21 21 22 23 24 25 25 26 27 27 27 27 27 28 29 30 30 30 30 30 30 31 31 31 30 30 30 29 28 27 26 26 25 25 25 25 25 25 26 26 26
18 19 19 19 19 20 21 21 22 22 22 24 24 25 25 25 25 26 28 28 29 29 30 30 30 30 30 29 29 28 28 27 26 26 25 25 24 24 25 25 26 26 26 26
18 18 18 18 19 19 20 20 20 21 21 22 22 23 23 23 23 24 25 26 27 27 27 28 28 28 28 28 27 26 26 26 26 26 26 26 26 25 25 26 26 25 26 26
17 17 18 18 19 19 19 19 19 20 20 20 20 21 21 21 22 23 23 24 25 24 25 26 26 25 25 26 25 25 25 25 25 25 26 26 25 25 25 25 25 25 26 25
17 17 18 18 19 18 18 18 18 19 19 19 19 20 20 20 21 22 22 23 23 23 23 24 23 24 24 24 24 24 25 25 25 25 25 24 24 24 24 25 25 25 25 25
Wind_Direction
238 241 243 247 251 253 253 254 257 262 267 269 268 269 272 271 270 269 271 272 273 273 272 273 274 272 272 274 276 277 277 280 284 288 291 294 296 297 299 301 302 302 302 302
241 242 244 248 251 253 254 255 255 258 263 266 268 270 271 269 267 266 266 270 273 275 275 275 276 275 274 273 273 276 278 280 282 286 290 291 292 294 296 298 299 299 300 299
245 246 248 250 251 253 254 254 257 259 261 266 267 269 269 268 266 265 266 268 271 272 273 274 274 275 274 273 273 274 277 278 279 282 286 288 290 293 294 296 296 296 298 298
246 249 251 251 252 253 254 255 257 259 262 266 267 269 268 268 267 266 266 267 268 269 270 273 274 273 272 273 273 274 274 277 278 281 285 288 290 291 294 295 297 296 297 297
246 251 252 253 254 255 255 256 257 258 262 265 268 269 267 267 267 266 267 268 268 268 269 271 274 275 271 271 272 272 274 276 279 281 285 288 289 290 291 292 294 296 299 298
247 250 251 256 257 256 256 257 256 258 261 264 266 266 266 265 266 265 266 267 268 268 269 270 272 272 271 271 272 274 276 278 280 282 284 287 289 289 289 291 292 294 296 295
249 251 254 257 259 258 257 260 261 261 262 263 265 266 266 266 266 267 265 264 266 268 269 270 271 271 271 272 272 272 275 277 280 282 284 285 287 290 291 291 292 293 295 294
250 252 255 259 259 259 259 261 264 265 264 264 265 266 267 268 268 267 267 265 265 266 268 270 271 271 270 271 272 271 273 275 278 282 284 284 285 287 289 291 292 293 294 293
252 254 256 259 261 261 261 262 264 264 264 264 265 266 266 268 268 267 267 267 266 266 267 269 269 270 270 270 272 272 273 277 278 280 283 283 284 286 287 289 291 293 293 293
254 255 257 259 260 260 261 261 262 264 265 266 265 265 266 266 266 266 265 265 265 266 267 268 268 269 268 270 271 272 274 276 278 279 280 281 282 285 287 289 290 291 292 293
253 256 258 259 260 260 260 260 261 263 264 266 266 265 265 265 264 263 264 263 263 263 264 265 267 268 268 270 272 273 273 276 278 279 280 280 282 284 286 288 290 292 292 292
254 257 258 259 261 262 262 261 262 263 264 266 267 267 266 266 264 263 263 264 264 262 263 265 266 268 270 270 270 273 274 276 278 281 280 279 280 281 283 286 289 290 291 291
255 257 259 260 262 263 264 262 262 263 263 265 266 267 267 267 265 263 263 264 264 264 264 267 268 269 270 271 273 274 275 276 277 280 281 280 279 280 283 285 287 289 290 291
257 259 260 262 263 264 264 263 263 263 263 264 265 266 267 267 266 265 263 264 265 264 265 267 269 270 270 271 273 274 276 276 278 280 281 281 281 281 283 285 287 289 290 290
258 259 261 262 263 264 264 265 264 264 264 265 266 266 265 265 265 265 265 265 266 266 266 267 268 271 272 272 273 274 275 277 278 280 282 283 284 283 284 285 286 287 288 288
258 260 261 261 262 264 265 265 265 265 265 265 265 265 264 264 264 265 266 266 265 266 267 267 267 268 271 272 273 274 276 277 278 280 282 282 284 284 284 285 286 286 287 288
260 260 260 261 262 263 264 265 264 264 265 265 264 264 264 264 264 265 267 267 267 267 266 267 268 269 271 272 274 275 277 278 279 281 282 282 282 283 283 284 285 285 286 287
262 262 262 261 261 262 263 265 265 264 265 266 267 266 264 264 264 264 265 266 268 268 268 268 268 270 272 272 273 276 278 279 279 280 280 281 282 282 282 283 284 284 284 284
264 263 262 261 261 261 262 264 266 267 268 267 267 266 265 265 265 265 265 266 267 269 271 272 272 272 273 275 276 278 279 279 279 279 279 280 280 281 282 283 284 284 284 284
261 262 263 263 263 262 264 265 266 267 268 269 268 266 265 264 265 265 266 267 268 270 271 273 274 275 275 276 277 278 279 279 279 279 278 279 280 281 281 282 283 284 285 283
262 263 264 265 266 266 266 267 268 267 267 268 268 267 265 265 265 266 267 267 268 270 271 272 274 277 277 277 279 279 280 280 279 279 280 279 279 280 280 281 281 282 283 284
264 266 267 267 268 269 268 269 271 269 266 267 268 268 268 267 267 268 269 268 268 270 272 273 275 277 279 279 279 280 280 281 279 279 279 279 279 279 279 280 280 282 283 285
266 268 269 269 270 271 272 273 272 270 267 267 268 270 271 270 269 269 269 269 270 271 272 274 276 277 279 279 280 281 279 279 279 278 278 278 278 278 278 280 283 284 285 285
268 270 272 272 270 271 273 273 273 272 270 270 270 271 272 271 270 270 271 272 272 272 274 275 276 277 278 278 278 280 278 277 276 276 276 277 276 277 279 281 283 284 284 284
269 272 272 274 274 275 275 275 275 274 272 272 273 273 273 273 272 272 273 273 274 275 276 277 277 278 278 277 279 279 278 277 275 274 273 274 275 274 277 280 282 282 283 283
269 271 273 274 276 277 277 277 276 276 275 274 274 274 274 275 275 276 276 276 277 277 277 278 277 276 276 278 280 280 279 278 277 278 276 275 274 275 276 278 279 281 282 283
270 270 271 274 277 277 276 277 278 277 275 274 274 274 276 278 279 279 278 278 278 278 278 279 279 279 279 279 279 280 280 280 279 278 277 275 275 276 278 279 280 281 282 283
Height
5878 5879 5881 5883 5885 5887 5888 5890 5892 5892 5892 5892 5892 5892 5892 5892 5893 5893 5893 5893 5892 5892 5892 5891 5891 5891 5890 5890 5889 5888 5888 5887 5886 5885 5884 5883 5881 5879 5878 5875 5873 5871 5869 5866
5872 5873 5875 5877 5879 5881 5882 5884 5885 5886 5887 5886 5887 5887 5887 5888 5888 5888 5889 5889 5888 5888 5887 5887 5887 5886 5886 5885 5885 5884 5884 5883 5882 5880 5879 5878 5876 5874 5872 5870 5868 5866 5863 5861
5867 5868 5869 5871 5874 5875 5876 5878 5879 5880 5881 5881 5881 5881 5882 5882 5883 5883 5883 5884 5883 5883 5883 5883 5882 5881 5881 5880 5880 5879 5878 5878 5876 5875 5874 5872 5870 5868 5866 5864 5862 5860 5858 5855
5861 5863 5864 5868 5867 5869 5870 5871 5873 5873 5874 5874 5875 5876 5876 5876 5877 5877 5877 5877 5878 5878 5877 5877 5876 5876 5875 5875 5874 5873 5873 5872 5871 5869 5868 5866 5864 5862 5859 5858 5856 5854 5852 5849
5855 5856 5858 5860 5861 5862 5864 5865 5866 5866 5867 5868 5868 5869 5869 5870 5870 5870 5870 5871 5871 5871 5871 5871 5870 5870 5869 5868 5868 5867 5866 5865 5864 5863 5861 5859 5857 5855 5853 5851 5849 5847 5845 5843
5849 5851 5853 5854 5854 5855 5858 5858 5859 5859 5860 5861 5861 5862 5863 5862 5863 5863 5863 5864 5864 5864 5864 5864 5863 5863 5862 5862 5861 5861 5860 5859 5857 5856 5855 5853 5850 5848 5846 5844 5842 5840 5838 5836
5842 5844 5846 5846 5847 5849 5852 5852 5851 5852 5853 5854 5854 5854 5855 5855 5855 5855 5856 5856 5856 5857 5857 5856 5856 5856 5855 5854 5854 5853 5852 5851 5850 5849 5847 5845 5843 5841 5839 5837 5835 5833 5831 5829
5835 5837 5840 5838 5840 5842 5843 5843 5844 5844 5845 5845 5846 5846 5846 5846 5847 5847 5847 5848 5848 5848 5848 5848 5848 5847 5847 5846 5846 5845 5844 5843 5842 5841 5839 5837 5835 5834 5831 5829 5827 5825 5823 5821
5827 5830 5830 5830 5832 5833 5834 5835 5836 5836 5836 5837 5837 5838 5838 5838 5838 5839 5839 5839 5839 5840 5840 5840 5839 5839 5838 5838 5837 5836 5835 5834 5833 5832 5830 5829 5827 5825 5823 5821 5819 5817 5815 5812
5818 5819 5821 5822 5823 5824 5825 5826 5827 5828 5828 5828 5829 5829 5829 5830 5830 5830 5830 5830 5831 5831 5831 5831 5830 5830 5829 5828 5828 5827 5826 5825 5824 5823 5821 5820 5818 5817 5815 5813 5810 5808 5806 5804
5809 5811 5812 5813 5814 5815 5816 5817 5818 5819 5819 5820 5820 5820 5821 5821 5821 5821 5822 5822 5822 5822 5822 5822 5821 5820 5820 5819 5818 5818 5817 5816 5815 5814 5812 5811 5809 5808 5806 5804 5802 5800 5797 5795
5800 5802 5803 5804 5805 5806 5807 5808 5809 5809 5810 5810 5811 5811 5812 5812 5812 5812 5812 5812 5812 5812 5812 5812 5811 5811 5810 5809 5809 5808 5808 5807 5806 5804 5803 5801 5800 5798 5796 5795 5793 5791 5788 5786
5792 5793 5794 5795 5796 5797 5798 5798 5799 5800 5801 5801 5801 5802 5802 5802 5802 5803 5803 5803 5802 5802 5802 5802 5802 5801 5800 5800 5799 5798 5798 5796 5795 5794 5793 5792 5790 5789 5787 5786 5784 5781 5779 5776
5783 5784 5785 5786 5787 5788 5788 5789 5789 5790 5791 5791 5792 5792 5793 5793 5793 5793 5793 5793 5793 5792 5792 5792 5791 5791 5790 5790 5789 5788 5787 5786 5785 5784 5783 5782 5780 5779 5777 5775 5774 5771 5769 5767
5774 5775 5776 5777 5777 5778 5778 5779 5780 5780 5781 5781 5782 5782 5783 5783 5783 5783 5783 5783 5783 5783 5782 5782 5781 5781 5780 5779 5779 5778 5777 5776 5775 5774 5773 5771 5770 5768 5767 5765 5763 5761 5758 5756
5764 5765 5766 5767 5768 5769 5769 5769 5770 5770 5771 5772 5772 5773 5773 5773 5773 5773 5773 5773 5773 5773 5772 5772 5771 5771 5770 5769 5768 5768 5767 5766 5765 5763 5762 5761 5760 5758 5756 5755 5753 5751 5748 5746
5755 5756 5757 5758 5759 5759 5760 5760 5760 5760 5761 5762 5762 5763 5763 5763 5763 5764 5763 5763 5763 5763 5763 5762 5762 5761 5760 5759 5758 5757 5756 5755 5754 5753 5752 5750 5749 5748 5746 5744 5742 5740 5738 5736
5746 5747 5748 5749 5749 5750 5750 5751 5751 5751 5751 5752 5752 5753 5753 5753 5753 5754 5753 5754 5753 5753 5753 5752 5752 5751 5750 5749 5748 5747 5746 5745 5744 5742 5741 5740 5738 5737 5736 5734 5732 5730 5728 5727
5738 5738 5738 5739 5740 5740 5741 5741 5741 5742 5742 5742 5742 5743 5743 5743 5743 5744 5744 5744 5744 5744 5744 5743 5742 5741 5740 5739 5738 5737 5736 5734 5733 5731 5730 5729 5728 5727 5726 5724 5722 5721 5719 5717
5729 5729 5730 5730 5731 5731 5731 5732 5732 5732 5732 5732 5732 5733 5733 5733 5733 5733 5734 5734 5734 5734 5734 5733 5732 5731 5730 5729 5728 5726 5725 5723 5722 5721 5720 5719 5718 5717 5716 5715 5713 5711 5710 5708
5721 5721 5722 5722 5722 5722 5722 5722 5722 5722 5723 5723 5724 5724 5724 5724 5724 5724 5724 5725 5725 5724 5724 5723 5722 5721 5720 5719 5718 5716 5715 5713 5712 5711 5711 5710 5709 5708 5707 5706 5704 5703 5702 5700
5714 5714 5714 5714 5714 5714 5714 5714 5713 5714 5714 5715 5715 5716 5716 5716 5716 5715 5715 5715 5715 5715 5714 5713 5712 5711 5710 5709 5708 5707 5706 5704 5703 5702 5702 5701 5700 5699 5698 5697 5696 5695 5693 5692
5708 5708 5707 5707 5707 5707 5706 5706 5706 5706 5706 5707 5707 5708 5707 5707 5706 5706 5706 5706 5705 5705 5704 5704 5703 5702 5701 5700 5698 5697 5696 5695 5695 5694 5693 5693 5692 5691 5690 5689 5688 5687 5685 5684
5702 5701 5701 5701 5700 5700 5700 5700 5699 5699 5699 5699 5699 5699 5699 5698 5698 5697 5697 5697 5696 5695 5695 5694 5693 5692 5691 5690 5689 5688 5687 5687 5686 5686 5685 5684 5684 5683 5682 5681 5680 5679 5678 5676
5695 5695 5695 5694 5694 5694 5694 5693 5693 5692 5692 5692 5692 5692 5691 5690 5690 5690 5689 5688 5687 5686 5686 5685 5684 5683 5682 5681 5680 5679 5679 5678 5678 5677 5676 5676 5676 5675 5674 5673 5672 5671 5670 5668
5689 5689 5689 5688 5688 5688 5687 5687 5687 5686 5686 5686 5685 5685 5684 5683 5683 5682 5681 5680 5680 5679 5678 5677 5676 5675 5674 5673 5672 5671 5670 5670 5669 5668 5668 5667 5667 5666 5666 5665 5664 5663 5662 5661
5683 5683 5683 5682 5682 5682 5681 5681 5680 5680 5680 5679 5679 5678 5678 5677 5676 5675 5674 5673 5673 5672 5671 5669 5668 5667 5666 5665 5664 5663 5663 5662 5661 5660 5660 5659 5659 5658 5658 5657 5656 5655 5654 5653